Location: Homer
(59.6430°N, 151.5480°W)
Time: 11:41:14
(UTC-08:00)

Daily predictions for brighter satellites

Satellite Brightness Start Highest point End
(mag) Time Altitude Azimuth Time Altitude Azimuth Time Altitude Azimuth
Cosmos 676 Rocket 4.3 22:14:46 10° NNW 22:20:01 58° NE 22:25:12 10° SE
Cosmos 1437 3.9 22:17:22 10° SW 22:20:29 49° WNW 22:23:38 10° N
Cosmos 405 3.3 22:19:12 10° N 22:22:41 51° ENE 22:26:07 10° SE
Helios 1B rocket 4.3 22:22:00 10° NE 22:24:17 14° E 22:26:33 10° ESE
Meteor 2-21 Rocket 4.5 22:18:28 10° S 22:24:37 79° E 22:30:51 10° NNE
Cosmos 1869 4.2 22:23:03 10° SSE 22:26:38 31° E 22:30:13 10° NNE
Cosmos 44 3.2 22:23:18 10° SW 22:27:53 63° SE 22:32:47 10° ENE
Cosmos 2237 4.2 22:24:50 10° SSW 22:30:33 81° SE 22:36:18 10° NE
Cosmos 2228 Rocket 3.2 22:28:43 10° S 22:33:01 55° E 22:37:21 10° NNE
Cosmos 2322 3.8 22:27:52 10° SW 22:33:35 87° SE 22:39:19 10° NE
Cosmos 1515 Rocket 3.7 22:33:04 10° S 22:37:29 60° E 22:41:54 10° NNE
Cosmos 1633 4.5 22:36:21 10° NNE 22:38:50 17° ENE 22:41:19 10° E
Cosmos 2098 Rocket 3.5 22:34:53 10° SSE 22:38:52 35° E 22:42:08 10° NNE
Thor Agena Rocket 4.0 22:36:14 10° NNE 22:41:25 70° WNW 22:46:39 10° SSW
SL-16 R/B 3.6 22:39:12 10° SE 22:42:57 18° E 22:46:43 10° ENE
USA 245 2.1 22:40:48 10° SSE 22:43:19 66° ENE 22:45:36 10° NNW
Meteor 1-4 Rocket 4.4 22:40:54 10° N 22:43:27 18° NE 22:45:58 10° E
Helios 1A 3.0 22:39:58 10° SSE 22:44:10 71° ENE 22:48:22 10° NNW
BREEZE-M DEB (TANK) 3.8 22:41:43 10° WSW 22:46:18 21° SSW 22:48:23 12° SE
Cosmos 44 Rocket 3.3 22:42:48 10° SW 22:47:36 65° SE 22:52:34 10° ENE
SL-19 R/B 4.4 22:42:05 10° SE 22:47:37 68° ENE 22:53:16 10° NNW
Cosmos 1943 Rocket 3.0 22:44:14 10° NW 22:49:28 41° NNE 22:54:43 10° ESE
Cosmos 1190 Rocket 4.3 22:46:26 10° NW 22:51:45 71° WSW 22:57:00 10° SSE
SJ 16-02 4.0 22:48:25 10° W 22:52:04 25° NW 22:55:45 10° NNE
SL-08 RB Rocket 3.8 22:48:15 10° SSE 22:52:45 76° WSW 22:57:16 10° NNW
Resurs 01 Rocket 3.9 22:51:20 10° SW 22:54:58 24° W 22:58:37 10° NW
Cosmos 1461 4.0 22:51:23 10° WNW 22:56:04 51° NNE 23:00:45 10° E
ARGOS 3.6 22:50:49 10° S 22:56:08 64° WSW 23:01:30 10° NNW
RESURS DK-1 3.4 22:53:05 10° NW 22:57:02 39° NNE 23:00:58 10° ESE
Cosmos 1328 Rocket 3.9 22:54:04 10° SSW 22:58:30 73° WNW 23:02:59 10° NNE
Cosmos 1862 3.3 22:57:30 10° NNW 23:01:37 85° E 23:05:32 11° SSE
Cosmos 1140 Rocket 3.5 22:56:35 10° NNW 23:01:50 86° ENE 23:06:29 13° SSE
Cosmos 1441 Rocket 4.2 22:59:08 13° SSE 23:01:52 28° E 23:05:09 10° NNE
Cosmos 1408 4.1 22:59:50 10° NNW 23:03:11 35° W 23:06:33 10° SSW
Cosmos 2297 4.0 22:57:45 10° NW 23:03:22 63° WSW 23:08:48 11° SSE
Cosmos 1455 2.9 22:59:36 10° SSW 23:03:24 57° WNW 23:07:15 10° N
Landsat 7 3.9 23:00:18 12° SSE 23:04:43 69° ENE 23:09:28 10° NNW
Cosmos 1954 Rocket 4.0 23:00:19 10° NNW 23:05:37 89° WSW 23:10:14 13° SSE
CZ-2C R/B 3.6 23:01:45 13° SE 23:05:39 39° ENE 23:10:12 10° N
GENESIS II 4.3 23:04:05 10° WNW 23:08:04 79° NNE 23:11:22 14° ESE
USA 234 3.5 23:02:31 11° ESE 23:08:42 59° SSW 23:15:10 10° W
Cosmos 1980 3.9 23:04:03 10° S 23:09:31 51° ESE 23:15:01 10° NE
Cosmos 2360 Rocket 3.0 23:04:02 10° WSW 23:09:35 56° NW 23:15:09 10° NE
Cosmos 1727 Rocket 4.2 23:05:53 10° NNW 23:12:05 73° W 23:18:13 10° S
Meteor 1-29 4.3 23:10:28 10° NE 23:13:14 23° E 23:14:41 17° SE
Cosmos 1980 Rocket 4.3 23:08:26 10° WNW 23:13:16 28° NNW 23:18:07 10° NE
Cosmos 2369 Rocket 2.6 23:08:12 10° NW 23:13:53 60° NE 23:18:48 14° ESE
Cosmos 1437 Rocket 3.2 23:10:28 10° N 23:14:12 47° ENE 23:16:55 17° SE
IGS 5A 3.6 23:10:52 15° SE 23:14:14 61° ENE 23:18:23 10° NNW
DMSP B5D2-2 4.5 23:10:59 10° NNE 23:16:00 44° E 23:20:48 11° S
Cosmos 2333 Rocket 2.1 23:10:33 10° SSW 23:16:12 73° SE 23:21:52 10° NE
Aureole 2 3.9 23:13:41 10° SSW 23:16:37 67° ESE 23:19:38 10° NE
Spot 1 4.3 23:15:23 13° SSE 23:19:49 89° ENE 23:24:30 10° NNW
SeaSat 1 3.6 23:15:30 10° E 23:20:02 38° NNE 23:24:36 10° NNW
COSMOS 2428 2.9 23:15:47 10° SW 23:21:33 79° NW 23:27:18 10° NE
Meteor 2-10 Rocket 3.8 23:16:20 10° S 23:22:04 69° E 23:27:54 10° NNE
Lacrosse 4 Rocket 3.6 23:18:22 10° WNW 23:22:08 29° N 23:25:58 10° NE
Terra 1.9 23:18:33 15° SSE 23:22:25 70° ENE 23:27:11 10° NNW
ATLAS CENTAUR R/B 1.6 23:19:05 10° SSW 23:22:36 38° SE 23:26:20 10° ENE
SL-16 R/B 4.0 23:17:30 10° W 23:22:44 36° NNW 23:27:59 10° NE
Cosmos 1867 4.5 23:18:22 10° W 23:23:43 52° N 23:29:06 10° ENE
Cosmos 2333 4.4 23:18:58 10° SW 23:24:37 75° NW 23:30:16 10° NE
SAR-Lupe-4 4.3 23:25:10 18° SE 23:27:23 40° ENE 23:30:46 10° N
Cosmos 1821 Rocket 4.4 23:22:18 13° SSE 23:27:35 46° E 23:33:31 10° NNE
Lacrosse 5 2.0 23:22:53 10° W 23:27:52 57° SSW 23:31:46 16° ESE
USA 81 4.5 23:24:03 10° NNW 23:29:18 64° W 23:34:31 10° S
Cosmos 405 Rocket 3.1 23:26:26 16° SSE 23:29:20 47° E 23:33:09 10° NNE
H-2A R/B 4.0 23:26:36 10° E 23:29:59 21° NE 23:33:23 10° N
SPOT 5 3.1 23:28:32 12° S 23:32:49 60° WSW 23:37:13 10° NNW
Cosmos 2123 Rocket 4.2 23:27:01 10° N 23:33:20 64° ENE 23:38:14 17° SSE
NOSS 2-1 (C) 3.4 23:30:38 10° SW 23:34:30 74° SE 23:39:23 10° ENE
ALOS 2 4.4 23:31:31 10° E 23:34:45 21° NE 23:38:04 10° N
NOSS 2-1 (D) 3.4 23:31:35 10° SW 23:35:29 75° SSE 23:40:22 10° ENE
Cosmos 2278 Rocket 4.2 23:32:15 10° NW 23:36:32 22° WSW 23:40:47 10° SSW
Cosmos 2344 4.5 23:30:33 11° SSE 23:36:32 29° ESE 23:43:41 10° ENE
CZ-2C R/B 4.0 23:33:07 10° NE 23:37:19 23° E 23:39:51 17° SE
Cosmos 2237 Rocket 2.1 23:31:45 10° SSW 23:37:20 67° ESE 23:42:57 10° NE
Cosmos 2218 Rocket 4.3 23:30:57 10° SSW 23:37:20 74° WNW 23:43:48 10° NNE
Cosmos 2219 Rocket 2.3 23:32:23 10° SW 23:38:04 81° NW 23:43:45 10° NE
SPOT 1/Viking Rocket 3.9 23:33:14 12° S 23:38:06 63° WSW 23:43:20 10° NNW
Cosmos 2322 Rocket 4.1 23:34:48 10° W 23:39:56 33° NNW 23:45:04 10° NE
Meteor 1-20 Rocket 4.3 23:39:57 10° NNW 23:45:26 67° ENE 23:49:15 20° SSE
H-2A R/B 3.3 23:42:10 10° SSW 23:46:46 35° W 23:51:19 10° NNW
Cosmos 1151 Rocket 4.4 23:45:19 10° SW 23:49:22 40° WNW 23:53:27 10° N
Cosmos 2098 4.3 23:47:59 25° S 23:49:35 61° E 23:53:05 10° NNE
ATLAS 5 CENTAUR R/B 2.3 23:44:06 10° WNW 23:49:36 80° SSW 23:54:15 18° SE
Cosmos 1933 3.5 23:47:31 20° S 23:50:09 57° E 23:54:11 10° NNE
Cosmos 2366 rocket 4.4 23:45:09 10° SSW 23:51:22 67° WNW 23:57:42 10° N
Cosmos 1707 Rocket 3.5 23:48:21 16° S 23:51:47 72° E 23:56:07 10° NNE
YAOGAN 11 4.1 23:49:42 20° S 23:52:39 77° WSW 23:56:59 10° NNW
Sich 1 Rocket 4.4 23:50:48 10° N 23:55:11 42° ENE 23:57:49 21° SE
